contact:dominique.lefevre@mio.osupytheas.fr, maurice.libes@osupytheas.fr, didier.mallarino@osupytheas.fr
Project:EMSO http://www.emso-fr.org/EMSO-France
Depth: 2436.0 m
Title:EMSO Ligure Ouest : Data MII capteur MICROCAT
DateTime_Computer,Latitude,Longitude,Temperature,Conductivity,Pressure,DateTime_Instrument
DateTime_Computer,Latitude,Longitude,degC,S m-1,dbar,DateTime_Instrument
2022-05-21T00:01:38Z,42.805,6.029,13.3021,4.60106,2470.754,2022-5-21T02:03:20Z
2022-05-21T00:04:41Z,42.805,6.029,13.3026,4.60091,2470.717,2022-5-21T02:06:23Z
2022-05-21T00:07:45Z,42.805,6.029,13.3034,4.60102,2470.74,2022-5-21T02:09:26Z
2022-05-21T00:10:48Z,42.805,6.029,13.3017,4.60096,2470.74,2022-5-21T02:12:29Z
2022-05-21T00:13:51Z,42.805,6.029,13.3020,4.60101,2470.754,2022-5-21T02:15:32Z
2022-05-21T00:16:54Z,42.805,6.029,13.3038,4.60108,2470.73,2022-5-21T02:18:35Z
2022-05-21T00:19:57Z,42.805,6.029,13.3018,4.60087,2470.74,2022-5-21T02:21:38Z
2022-05-21T00:23:00Z,42.805,6.029,13.3022,4.60108,2470.726,2022-5-21T02:24:42Z
2022-05-21T00:26:03Z,42.805,6.029,13.3026,4.60082,2470.717,2022-5-21T02:27:45Z
2022-05-21T00:29:06Z,42.805,6.029,13.3025,4.60105,2470.73,2022-5-21T02:30:48Z
2022-05-21T00:32:10Z,42.805,6.029,13.3020,4.60084,2470.754,2022-5-21T02:33:51Z
2022-05-21T00:35:13Z,42.805,6.029,13.3025,4.60095,2470.717,2022-5-21T02:36:54Z
2022-05-21T00:38:16Z,42.805,6.029,13.3019,4.60091,2470.754,2022-5-21T02:39:57Z
2022-05-21T00:41:19Z,42.805,6.029,13.3018,4.60107,2470.754,2022-5-21T02:43:00Z
2022-05-21T00:44:22Z,42.805,6.029,13.3024,4.60098,2470.73,2022-5-21T02:46:03Z
2022-05-21T00:47:25Z,42.805,6.029,13.3018,4.60099,2470.717,2022-5-21T02:49:07Z
2022-05-21T00:50:28Z,42.805,6.029,13.3014,4.60082,2470.73,2022-5-21T02:52:10Z
2022-05-21T00:53:31Z,42.805,6.029,13.3022,4.60087,2470.74,2022-5-21T02:55:13Z
2022-05-21T00:56:35Z,42.805,6.029,13.3014,4.60084,2470.74,2022-5-21T02:58:16Z
2022-05-21T00:59:38Z,42.805,6.029,13.3014,4.60096,2470.74,2022-5-21T03:01:19Z
2022-05-21T01:02:41Z,42.805,6.029,13.3025,4.60075,2470.693,2022-5-21T03:04:22Z
2022-05-21T01:05:44Z,42.805,6.029,13.3015,4.60087,2470.754,2022-5-21T03:07:25Z
2022-05-21T01:08:47Z,42.805,6.029,13.3016,4.60102,2470.707,2022-5-21T03:10:28Z
2022-05-21T01:11:50Z,42.805,6.029,13.3021,4.60091,2470.73,2022-5-21T03:13:32Z
2022-05-21T01:14:53Z,42.805,6.029,13.3018,4.60095,2470.707,2022-5-21T03:16:35Z
2022-05-21T01:17:56Z,42.805,6.029,13.3019,4.60101,2470.707,2022-5-21T03:19:38Z
2022-05-21T01:21:00Z,42.805,6.029,13.3025,4.60104,2470.74,2022-5-21T03:22:41Z
2022-05-21T01:24:03Z,42.805,6.029,13.3020,4.60084,2470.693,2022-5-21T03:25:44Z
2022-05-21T01:27:06Z,42.805,6.029,13.3009,4.60084,2470.67,2022-5-21T03:28:47Z
2022-05-21T01:30:09Z,42.805,6.029,13.3020,4.60099,2470.754,2022-5-21T03:31:50Z
2022-05-21T01:33:12Z,42.805,6.029,13.3021,4.60086,2470.73,2022-5-21T03:34:53Z
2022-05-21T01:36:15Z,42.805,6.029,13.3019,4.60084,2470.73,2022-5-21T03:37:57Z
2022-05-21T01:39:18Z,42.805,6.029,13.3024,4.60088,2470.754,2022-5-21T03:41:00Z
2022-05-21T01:42:21Z,42.805,6.029,13.3021,4.60092,2470.73,2022-5-21T03:44:03Z
2022-05-21T01:45:25Z,42.805,6.029,13.3018,4.60096,2470.693,2022-5-21T03:47:06Z
2022-05-21T01:48:28Z,42.805,6.029,13.3023,4.60099,2470.693,2022-5-21T03:50:09Z
2022-05-21T01:51:31Z,42.805,6.029,13.3027,4.60087,2470.693,2022-5-21T03:53:12Z
2022-05-21T01:54:34Z,42.805,6.029,13.3019,4.60071,2470.67,2022-5-21T03:56:15Z
2022-05-21T01:57:37Z,42.805,6.029,13.3018,4.60070,2470.707,2022-5-21T03:59:18Z
2022-05-21T02:00:40Z,42.805,6.029,13.3015,4.60084,2470.707,2022-5-21T04:02:22Z
2022-05-21T02:03:43Z,42.805,6.029,13.3016,4.60079,2470.67,2022-5-21T04:05:25Z
2022-05-21T02:06:46Z,42.805,6.029,13.3022,4.60097,2470.693,2022-5-21T04:08:28Z
2022-05-21T02:09:50Z,42.805,6.029,13.3016,4.60086,2470.693,2022-5-21T04:11:31Z
2022-05-21T02:12:53Z,42.805,6.029,13.3027,4.60090,2470.721,2022-5-21T04:14:34Z
2022-05-21T02:15:56Z,42.805,6.029,13.3019,4.60081,2470.693,2022-5-21T04:17:37Z
2022-05-21T02:18:59Z,42.805,6.029,13.3026,4.60085,2470.67,2022-5-21T04:20:40Z
2022-05-21T02:22:02Z,42.805,6.029,13.3027,4.60082,2470.693,2022-5-21T04:23:43Z
2022-05-21T02:25:05Z,42.805,6.029,13.3024,4.60084,2470.684,2022-5-21T04:26:46Z
2022-05-21T02:28:08Z,42.805,6.029,13.3022,4.60073,2470.707,2022-5-21T04:29:50Z
2022-05-21T02:31:11Z,42.805,6.029,13.3018,4.60080,2470.707,2022-5-21T04:32:53Z
2022-05-21T02:34:14Z,42.805,6.029,13.3018,4.60096,2470.693,2022-5-21T04:35:56Z
2022-05-21T02:37:18Z,42.805,6.029,13.3020,4.60066,2470.646,2022-5-21T04:38:59Z
2022-05-21T02:40:21Z,42.805,6.029,13.3019,4.60087,2470.684,2022-5-21T04:42:02Z
2022-05-21T02:43:24Z,42.805,6.029,13.3015,4.60089,2470.707,2022-5-21T04:45:05Z
2022-05-21T02:46:27Z,42.805,6.029,13.3011,4.60099,2470.661,2022-5-21T04:48:08Z
2022-05-21T02:49:30Z,42.805,6.029,13.3024,4.60091,2470.693,2022-5-21T04:51:11Z
2022-05-21T02:52:33Z,42.805,6.029,13.3019,4.60094,2470.67,2022-5-21T04:54:15Z
2022-05-21T02:55:36Z,42.805,6.029,13.3019,4.60099,2470.684,2022-5-21T04:57:18Z
2022-05-21T02:58:39Z,42.805,6.029,13.3019,4.60094,2470.674,2022-5-21T05:00:21Z
2022-05-21T03:01:43Z,42.805,6.029,13.3021,4.60092,2470.67,2022-5-21T05:03:24Z
2022-05-21T03:04:46Z,42.805,6.029,13.3019,4.60085,2470.646,2022-5-21T05:06:27Z
2022-05-21T03:07:49Z,42.805,6.029,13.3016,4.60066,2470.661,2022-5-21T05:09:30Z
2022-05-21T03:10:52Z,42.805,6.029,13.3020,4.60081,2470.67,2022-5-21T05:12:33Z
2022-05-21T03:13:55Z,42.805,6.029,13.3011,4.60062,2470.661,2022-5-21T05:15:36Z
2022-05-21T03:16:58Z,42.805,6.029,13.3021,4.60064,2470.684,2022-5-21T05:18:40Z
2022-05-21T03:20:01Z,42.805,6.029,13.3020,4.60067,2470.656,2022-5-21T05:21:43Z
2022-05-21T03:23:04Z,42.805,6.029,13.3016,4.60067,2470.646,2022-5-21T05:24:46Z
2022-05-21T03:26:08Z,42.805,6.029,13.3010,4.60055,2470.646,2022-5-21T05:27:49Z
2022-05-21T03:29:11Z,42.805,6.029,13.3009,4.60057,2470.637,2022-5-21T05:30:52Z
2022-05-21T03:32:14Z,42.805,6.029,13.3020,4.60078,2470.624,2022-5-21T05:33:55Z
2022-05-21T03:35:17Z,42.805,6.029,13.3014,4.60089,2470.646,2022-5-21T05:36:58Z
2022-05-21T03:38:20Z,42.805,6.029,13.3011,4.60062,2470.646,2022-5-21T05:40:01Z
2022-05-21T03:41:23Z,42.805,6.029,13.3010,4.60063,2470.646,2022-5-21T05:43:05Z
2022-05-21T03:44:26Z,42.805,6.029,13.3011,4.60074,2470.614,2022-5-21T05:46:08Z
2022-05-21T03:47:29Z,42.805,6.029,13.3012,4.60050,2470.67,2022-5-21T05:49:11Z
2022-05-21T03:50:32Z,42.805,6.029,13.3011,4.60084,2470.661,2022-5-21T05:52:14Z
2022-05-21T03:53:36Z,42.805,6.029,13.3014,4.60064,2470.646,2022-5-21T05:55:17Z
2022-05-21T03:56:39Z,42.805,6.029,13.3015,4.60069,2470.637,2022-5-21T05:58:20Z
2022-05-21T03:59:42Z,42.805,6.029,13.3014,4.60076,2470.646,2022-5-21T06:01:23Z
2022-05-21T04:02:45Z,42.805,6.029,13.3009,4.60052,2470.624,2022-5-21T06:04:26Z
2022-05-21T04:05:48Z,42.805,6.029,13.3028,4.60074,2470.637,2022-5-21T06:07:29Z
2022-05-21T04:08:51Z,42.805,6.029,13.3011,4.60057,2470.614,2022-5-21T06:10:33Z
2022-05-21T04:11:54Z,42.805,6.029,13.3013,4.60056,2470.6,2022-5-21T06:13:36Z
2022-05-21T04:14:57Z,42.805,6.029,13.3013,4.60054,2470.624,2022-5-21T06:16:39Z
2022-05-21T04:18:01Z,42.805,6.029,13.3006,4.60049,2470.624,2022-5-21T06:19:42Z
2022-05-21T04:21:04Z,42.805,6.029,13.3010,4.60049,2470.6,2022-5-21T06:22:45Z
2022-05-21T04:24:07Z,42.805,6.029,13.3006,4.60049,2470.624,2022-5-21T06:25:48Z
2022-05-21T04:27:10Z,42.805,6.029,13.3005,4.60056,2470.624,2022-5-21T06:28:51Z
2022-05-21T04:30:13Z,42.805,6.029,13.3014,4.60066,2470.6,2022-5-21T06:31:54Z
2022-05-21T04:33:16Z,42.805,6.029,13.3017,4.60075,2470.614,2022-5-21T06:34:58Z
2022-05-21T04:36:19Z,42.805,6.029,13.3014,4.60079,2470.6,2022-5-21T06:38:01Z
2022-05-21T04:39:22Z,42.805,6.029,13.3017,4.60064,2470.614,2022-5-21T06:41:04Z
2022-05-21T04:42:26Z,42.805,6.029,13.3015,4.60074,2470.586,2022-5-21T06:44:07Z
2022-05-21T04:45:29Z,42.805,6.029,13.3011,4.60079,2470.6,2022-5-21T06:47:10Z
2022-05-21T04:48:32Z,42.805,6.029,13.3006,4.60053,2470.591,2022-5-21T06:50:13Z
2022-05-21T04:51:35Z,42.805,6.029,13.3004,4.60072,2470.614,2022-5-21T06:53:16Z
2022-05-21T04:54:38Z,42.805,6.029,13.3018,4.60052,2470.637,2022-5-21T06:56:19Z
2022-05-21T04:57:41Z,42.805,6.029,13.3009,4.60052,2470.591,2022-5-21T06:59:23Z
2022-05-21T05:00:44Z,42.805,6.029,13.3009,4.60063,2470.6,2022-5-21T07:02:26Z
2022-05-21T05:03:47Z,42.805,6.029,13.3014,4.60054,2470.591,2022-5-21T07:05:29Z
2022-05-21T05:06:51Z,42.805,6.029,13.3011,4.60056,2470.6,2022-5-21T07:08:32Z
2022-05-21T05:09:54Z,42.805,6.029,13.3004,4.60058,2470.6,2022-5-21T07:11:35Z
2022-05-21T05:12:57Z,42.805,6.029,13.3006,4.60059,2470.567,2022-5-21T07:14:38Z
2022-05-21T05:16:00Z,42.805,6.029,13.3011,4.60084,2470.577,2022-5-21T07:17:41Z
2022-05-21T05:19:03Z,42.805,6.029,13.3005,4.60059,2470.624,2022-5-21T07:20:44Z
2022-05-21T05:22:06Z,42.805,6.029,13.3008,4.60056,2470.614,2022-5-21T07:23:48Z
2022-05-21T05:25:09Z,42.805,6.029,13.3001,4.60058,2470.567,2022-5-21T07:26:51Z
2022-05-21T05:28:12Z,42.805,6.029,13.3009,4.60072,2470.577,2022-5-21T07:29:54Z
2022-05-21T05:31:15Z,42.805,6.029,13.3010,4.60056,2470.6,2022-5-21T07:32:57Z
2022-05-21T05:34:19Z,42.805,6.029,13.3016,4.60072,2470.591,2022-5-21T07:36:00Z
2022-05-21T05:37:22Z,42.805,6.029,13.3016,4.60099,2470.577,2022-5-21T07:39:03Z
2022-05-21T05:40:25Z,42.805,6.029,13.3006,4.60059,2470.591,2022-5-21T07:42:06Z
2022-05-21T05:43:28Z,42.805,6.029,13.3016,4.60053,2470.567,2022-5-21T07:45:09Z
2022-05-21T05:46:31Z,42.805,6.029,13.3013,4.60066,2470.53,2022-5-21T07:48:12Z
2022-05-21T05:49:34Z,42.805,6.029,13.3005,4.60065,2470.567,2022-5-21T07:51:16Z
2022-05-21T05:52:37Z,42.805,6.029,13.3020,4.60064,2470.553,2022-5-21T07:54:19Z
2022-05-21T05:55:40Z,42.805,6.029,13.3020,4.60077,2470.567,2022-5-21T07:57:22Z
2022-05-21T05:58:44Z,42.805,6.029,13.3019,4.60084,2470.591,2022-5-21T08:00:25Z
2022-05-21T06:01:47Z,42.805,6.029,13.3009,4.60079,2470.591,2022-5-21T08:03:28Z
2022-05-21T06:04:50Z,42.805,6.029,13.3017,4.60069,2470.53,2022-5-21T08:06:31Z
2022-05-21T06:07:53Z,42.805,6.029,13.3013,4.60080,2470.53,2022-5-21T08:09:34Z
2022-05-21T06:10:56Z,42.805,6.029,13.3010,4.60087,2470.553,2022-5-21T08:12:37Z
2022-05-21T06:13:59Z,42.805,6.029,13.3031,4.60054,2470.53,2022-5-21T08:15:41Z
2022-05-21T06:17:02Z,42.805,6.029,13.3010,4.60060,2470.553,2022-5-21T08:18:44Z
2022-05-21T06:20:05Z,42.805,6.029,13.3012,4.60084,2470.553,2022-5-21T08:21:47Z
2022-05-21T06:23:09Z,42.805,6.029,13.3014,4.60102,2470.553,2022-5-21T08:24:50Z
2022-05-21T06:26:12Z,42.805,6.029,13.3012,4.60092,2470.567,2022-5-21T08:27:53Z
2022-05-21T06:29:15Z,42.805,6.029,13.3015,4.60103,2470.567,2022-5-21T08:30:56Z
2022-05-21T06:32:18Z,42.805,6.029,13.3014,4.60064,2470.577,2022-5-21T08:33:59Z
2022-05-21T06:35:21Z,42.805,6.029,13.3016,4.60089,2470.553,2022-5-21T08:37:02Z
2022-05-21T06:38:24Z,42.805,6.029,13.3006,4.60069,2470.577,2022-5-21T08:40:05Z
2022-05-21T06:41:27Z,42.805,6.029,13.3014,4.60087,2470.567,2022-5-21T08:43:09Z
2022-05-21T06:44:30Z,42.805,6.029,13.3014,4.60069,2470.567,2022-5-21T08:46:12Z
2022-05-21T06:47:33Z,42.805,6.029,13.3006,4.60089,2470.553,2022-5-21T08:49:15Z
2022-05-21T06:50:37Z,42.805,6.029,13.3009,4.60060,2470.577,2022-5-21T08:52:18Z
2022-05-21T06:53:40Z,42.805,6.029,13.3013,4.60104,2470.553,2022-5-21T08:55:21Z
2022-05-21T06:56:43Z,42.805,6.029,13.3021,4.60093,2470.52,2022-5-21T08:58:24Z
2022-05-21T06:59:46Z,42.805,6.029,13.3029,4.60067,2470.577,2022-5-21T09:01:27Z
2022-05-21T07:02:49Z,42.805,6.029,13.3015,4.60061,2470.553,2022-5-21T09:04:30Z
2022-05-21T07:05:52Z,42.805,6.029,13.3012,4.60088,2470.53,2022-5-21T09:07:34Z
2022-05-21T07:08:55Z,42.805,6.029,13.3036,4.60088,2470.553,2022-5-21T09:10:37Z
2022-05-21T07:11:58Z,42.805,6.029,13.3013,4.60080,2470.567,2022-5-21T09:13:40Z
2022-05-21T07:15:02Z,42.805,6.029,13.3014,4.60099,2470.577,2022-5-21T09:16:43Z
2022-05-21T07:18:05Z,42.805,6.029,13.3017,4.60113,2470.553,2022-5-21T09:19:46Z
2022-05-21T07:21:08Z,42.805,6.029,13.3038,4.60108,2470.567,2022-5-21T09:22:49Z
2022-05-21T07:24:11Z,42.805,6.029,13.3029,4.60102,2470.553,2022-5-21T09:25:52Z
2022-05-21T07:27:14Z,42.805,6.029,13.3014,4.60102,2470.553,2022-5-21T09:28:55Z
2022-05-21T07:30:17Z,42.805,6.029,13.3035,4.60114,2470.567,2022-5-21T09:31:59Z
2022-05-21T07:33:20Z,42.805,6.029,13.3013,4.60096,2470.577,2022-5-21T09:35:02Z
2022-05-21T07:36:23Z,42.805,6.029,13.3015,4.60075,2470.6,2022-5-21T09:38:05Z
2022-05-21T07:39:27Z,42.805,6.029,13.3017,4.60101,2470.577,2022-5-21T09:41:08Z
2022-05-21T07:42:30Z,42.805,6.029,13.3014,4.60090,2470.577,2022-5-21T09:44:11Z
2022-05-21T07:45:33Z,42.805,6.029,13.3013,4.60109,2470.567,2022-5-21T09:47:14Z
2022-05-21T07:48:36Z,42.805,6.029,13.3007,4.60099,2470.577,2022-5-21T09:50:17Z
2022-05-21T07:51:39Z,42.805,6.029,13.3013,4.60074,2470.567,2022-5-21T09:53:20Z
2022-05-21T07:54:42Z,42.805,6.029,13.3012,4.60100,2470.577,2022-5-21T09:56:24Z
2022-05-21T07:57:45Z,42.805,6.029,13.3032,4.60120,2470.591,2022-5-21T09:59:27Z
2022-05-21T08:00:48Z,42.805,6.029,13.3030,4.60106,2470.577,2022-5-21T10:02:30Z
2022-05-21T08:03:52Z,42.805,6.029,13.3031,4.60131,2470.577,2022-5-21T10:05:33Z
2022-05-21T08:06:55Z,42.805,6.029,13.3035,4.60132,2470.614,2022-5-21T10:08:36Z
2022-05-21T08:09:58Z,42.805,6.029,13.3046,4.60095,2470.563,2022-5-21T10:11:39Z
2022-05-21T08:13:01Z,42.805,6.029,13.3035,4.60097,2470.591,2022-5-21T10:14:42Z
2022-05-21T08:16:04Z,42.805,6.029,13.3020,4.60091,2470.591,2022-5-21T10:17:45Z
2022-05-21T08:19:07Z,42.805,6.029,13.3024,4.60099,2470.6,2022-5-21T10:20:49Z
2022-05-21T08:22:10Z,42.805,6.029,13.3039,4.60077,2470.591,2022-5-21T10:23:52Z
2022-05-21T08:25:13Z,42.805,6.029,13.3015,4.60076,2470.577,2022-5-21T10:26:55Z
2022-05-21T08:28:17Z,42.805,6.029,13.3024,4.60092,2470.577,2022-5-21T10:29:58Z
2022-05-21T08:31:20Z,42.805,6.029,13.3026,4.60145,2470.624,2022-5-21T10:33:01Z
2022-05-21T08:34:23Z,42.805,6.029,13.3031,4.60117,2470.577,2022-5-21T10:36:04Z
2022-05-21T08:37:26Z,42.805,6.029,13.3025,4.60126,2470.577,2022-5-21T10:39:07Z
2022-05-21T08:40:29Z,42.805,6.029,13.3024,4.60105,2470.624,2022-5-21T10:42:10Z
2022-05-21T08:43:32Z,42.805,6.029,13.3022,4.60095,2470.577,2022-5-21T10:45:14Z
2022-05-21T08:46:35Z,42.805,6.029,13.3034,4.60105,2470.624,2022-5-21T10:48:17Z
2022-05-21T08:49:38Z,42.805,6.029,13.3031,4.60125,2470.553,2022-5-21T10:51:20Z
2022-05-21T08:52:42Z,42.805,6.029,13.3046,4.60109,2470.6,2022-5-21T10:54:23Z
2022-05-21T08:55:45Z,42.805,6.029,13.3026,4.60123,2470.624,2022-5-21T10:57:26Z
2022-05-21T08:58:48Z,42.805,6.029,13.3033,4.60101,2470.614,2022-5-21T11:00:29Z
2022-05-21T09:01:51Z,42.805,6.029,13.3020,4.60099,2470.614,2022-5-21T11:03:32Z
2022-05-21T09:04:54Z,42.805,6.029,13.3014,4.60099,2470.624,2022-5-21T11:06:35Z
2022-05-21T09:07:57Z,42.805,6.029,13.3026,4.60110,2470.614,2022-5-21T11:09:39Z
2022-05-21T09:11:00Z,42.805,6.029,13.3019,4.60123,2470.577,2022-5-21T11:12:42Z
2022-05-21T09:14:03Z,42.805,6.029,13.3049,4.60114,2470.591,2022-5-21T11:15:45Z
2022-05-21T09:17:07Z,42.805,6.029,13.3028,4.60102,2470.6,2022-5-21T11:18:48Z
2022-05-21T09:20:10Z,42.805,6.029,13.3032,4.60130,2470.6,2022-5-21T11:21:51Z
2022-05-21T09:23:13Z,42.805,6.029,13.3033,4.60102,2470.6,2022-5-21T11:24:54Z
2022-05-21T09:26:16Z,42.805,6.029,13.3028,4.60122,2470.637,2022-5-21T11:27:57Z
2022-05-21T09:29:19Z,42.805,6.029,13.3021,4.60139,2470.637,2022-5-21T11:31:00Z
2022-05-21T09:32:22Z,42.805,6.029,13.3038,4.60099,2470.6,2022-5-21T11:34:04Z
2022-05-21T09:35:25Z,42.805,6.029,13.3025,4.60097,2470.577,2022-5-21T11:37:07Z
2022-05-21T09:38:28Z,42.805,6.029,13.3031,4.60109,2470.614,2022-5-21T11:40:10Z
2022-05-21T09:41:32Z,42.805,6.029,13.3035,4.60112,2470.624,2022-5-21T11:43:13Z
2022-05-21T09:44:35Z,42.805,6.029,13.3025,4.60104,2470.624,2022-5-21T11:46:16Z
2022-05-21T09:47:38Z,42.805,6.029,13.3031,4.60116,2470.646,2022-5-21T11:49:19Z
2022-05-21T09:50:41Z,42.805,6.029,13.3031,4.60099,2470.624,2022-5-21T11:52:22Z
2022-05-21T09:53:44Z,42.805,6.029,13.3020,4.60082,2470.614,2022-5-21T11:55:25Z
2022-05-21T09:56:47Z,42.805,6.029,13.3029,4.60096,2470.614,2022-5-21T11:58:29Z
2022-05-21T09:59:50Z,42.805,6.029,13.3017,4.60127,2470.6,2022-5-21T12:01:32Z
2022-05-21T10:02:53Z,42.805,6.029,13.3021,4.60110,2470.614,2022-5-21T12:04:35Z
2022-05-21T10:05:57Z,42.805,6.029,13.3047,4.60119,2470.6,2022-5-21T12:07:38Z
2022-05-21T10:09:00Z,42.805,6.029,13.3035,4.60128,2470.614,2022-5-21T12:10:41Z
2022-05-21T10:12:03Z,42.805,6.029,13.3027,4.60136,2470.637,2022-5-21T12:13:44Z
2022-05-21T10:15:06Z,42.805,6.029,13.3027,4.60091,2470.591,2022-5-21T12:16:47Z
2022-05-21T10:18:09Z,42.805,6.029,13.3017,4.60092,2470.624,2022-5-21T12:19:50Z
2022-05-21T10:21:12Z,42.805,6.029,13.3016,4.60096,2470.577,2022-5-21T12:22:54Z
2022-05-21T10:24:15Z,42.805,6.029,13.3021,4.60092,2470.614,2022-5-21T12:25:57Z
2022-05-21T10:27:18Z,42.805,6.029,13.3021,4.60114,2470.614,2022-5-21T12:29:00Z
2022-05-21T10:30:22Z,42.805,6.029,13.3033,4.60116,2470.614,2022-5-21T12:32:03Z
2022-05-21T10:33:25Z,42.805,6.029,13.3021,4.60102,2470.6,2022-5-21T12:35:06Z
2022-05-21T10:36:28Z,42.805,6.029,13.3034,4.60137,2470.661,2022-5-21T12:38:09Z
2022-05-21T10:39:31Z,42.805,6.029,13.3020,4.60128,2470.614,2022-5-21T12:41:12Z
2022-05-21T10:42:34Z,42.805,6.029,13.3042,4.60120,2470.614,2022-5-21T12:44:15Z
2022-05-21T10:45:37Z,42.805,6.029,13.3033,4.60127,2470.646,2022-5-21T12:47:19Z
2022-05-21T10:48:40Z,42.805,6.029,13.3041,4.60113,2470.6,2022-5-21T12:50:22Z
2022-05-21T10:51:43Z,42.805,6.029,13.3026,4.60119,2470.614,2022-5-21T12:53:25Z
2022-05-21T10:54:47Z,42.805,6.029,13.3023,4.60107,2470.614,2022-5-21T12:56:28Z
2022-05-21T10:57:50Z,42.805,6.029,13.3025,4.60098,2470.614,2022-5-21T12:59:31Z
2022-05-21T11:00:53Z,42.805,6.029,13.3034,4.60122,2470.6,2022-5-21T13:02:34Z
2022-05-21T11:03:56Z,42.805,6.029,13.3029,4.60105,2470.6,2022-5-21T13:05:37Z
2022-05-21T11:06:59Z,42.805,6.029,13.3016,4.60102,2470.614,2022-5-21T13:08:40Z
2022-05-21T11:10:02Z,42.805,6.029,13.3023,4.60103,2470.6,2022-5-21T13:11:44Z
2022-05-21T11:13:05Z,42.805,6.029,13.3024,4.60130,2470.577,2022-5-21T13:14:47Z
2022-05-21T11:16:08Z,42.805,6.029,13.3030,4.60119,2470.614,2022-5-21T13:17:50Z
2022-05-21T11:19:12Z,42.805,6.029,13.3031,4.60122,2470.614,2022-5-21T13:20:53Z
2022-05-21T11:22:15Z,42.805,6.029,13.3044,4.60110,2470.614,2022-5-21T13:23:56Z
2022-05-21T11:25:18Z,42.805,6.029,13.3014,4.60103,2470.567,2022-5-21T13:26:59Z
2022-05-21T11:28:21Z,42.805,6.029,13.3024,4.60074,2470.6,2022-5-21T13:30:02Z
2022-05-21T11:31:24Z,42.805,6.029,13.3026,4.60108,2470.591,2022-5-21T13:33:05Z
2022-05-21T11:34:27Z,42.805,6.029,13.3031,4.60125,2470.577,2022-5-21T13:36:09Z
2022-05-21T11:37:30Z,42.805,6.029,13.3018,4.60121,2470.614,2022-5-21T13:39:12Z
2022-05-21T11:40:33Z,42.805,6.029,13.3035,4.60098,2470.591,2022-5-21T13:42:15Z
2022-05-21T11:43:37Z,42.805,6.029,13.3035,4.60097,2470.614,2022-5-21T13:45:18Z
2022-05-21T11:46:40Z,42.805,6.029,13.3031,4.60097,2470.6,2022-5-21T13:48:21Z
2022-05-21T11:49:43Z,42.805,6.029,13.3031,4.60102,2470.6,2022-5-21T13:51:24Z
2022-05-21T11:52:46Z,42.805,6.029,13.3025,4.60091,2470.614,2022-5-21T13:54:27Z
2022-05-21T11:55:49Z,42.805,6.029,13.3017,4.60109,2470.614,2022-5-21T13:57:30Z
2022-05-21T11:58:52Z,42.805,6.029,13.3024,4.60101,2470.577,2022-5-21T14:00:34Z
2022-05-21T12:01:55Z,42.805,6.029,13.3019,4.60108,2470.614,2022-5-21T14:03:37Z
2022-05-21T12:04:58Z,42.805,6.029,13.3019,4.60100,2470.6,2022-5-21T14:06:40Z
2022-05-21T12:08:02Z,42.805,6.029,13.3021,4.60110,2470.553,2022-5-21T14:09:43Z
2022-05-21T12:11:05Z,42.805,6.029,13.3023,4.60117,2470.591,2022-5-21T14:12:46Z
2022-05-21T12:14:08Z,42.805,6.029,13.3014,4.60109,2470.553,2022-5-21T14:15:49Z
2022-05-21T12:17:11Z,42.805,6.029,13.3029,4.60114,2470.577,2022-5-21T14:18:52Z
2022-05-21T12:20:14Z,42.805,6.029,13.3009,4.60091,2470.577,2022-5-21T14:21:55Z
2022-05-21T12:23:17Z,42.805,6.029,13.3027,4.60094,2470.6,2022-5-21T14:24:59Z
2022-05-21T12:26:20Z,42.805,6.029,13.3026,4.60094,2470.614,2022-5-21T14:28:02Z
2022-05-21T12:29:23Z,42.805,6.029,13.3016,4.60084,2470.553,2022-5-21T14:31:05Z
2022-05-21T12:32:27Z,42.805,6.029,13.3014,4.60085,2470.577,2022-5-21T14:34:08Z
2022-05-21T12:35:30Z,42.805,6.029,13.3018,4.60097,2470.577,2022-5-21T14:37:11Z
2022-05-21T12:38:33Z,42.805,6.029,13.3011,4.60105,2470.614,2022-5-21T14:40:14Z
2022-05-21T12:41:36Z,42.805,6.029,13.3026,4.60117,2470.591,2022-5-21T14:43:17Z
2022-05-21T12:44:39Z,42.805,6.029,13.3018,4.60104,2470.567,2022-5-21T14:46:20Z
2022-05-21T12:47:42Z,42.805,6.029,13.3029,4.60128,2470.591,2022-5-21T14:49:24Z
2022-05-21T12:50:45Z,42.805,6.029,13.3016,4.60106,2470.591,2022-5-21T14:52:27Z
2022-05-21T12:53:48Z,42.805,6.029,13.3031,4.60119,2470.544,2022-5-21T14:55:30Z
2022-05-21T12:56:52Z,42.805,6.029,13.3031,4.60104,2470.567,2022-5-21T14:58:33Z
2022-05-21T12:59:55Z,42.805,6.029,13.3026,4.60074,2470.591,2022-5-21T15:01:36Z
2022-05-21T13:02:58Z,42.805,6.029,13.3024,4.60096,2470.553,2022-5-21T15:04:39Z
2022-05-21T13:06:01Z,42.805,6.029,13.3015,4.60112,2470.553,2022-5-21T15:07:42Z
2022-05-21T13:09:04Z,42.805,6.029,13.3029,4.60099,2470.614,2022-5-21T15:10:46Z
2022-05-21T13:12:07Z,42.805,6.029,13.3030,4.60107,2470.577,2022-5-21T15:13:49Z
2022-05-21T13:15:10Z,42.805,6.029,13.3037,4.60105,2470.577,2022-5-21T15:16:52Z
2022-05-21T13:18:13Z,42.805,6.029,13.3014,4.60091,2470.577,2022-5-21T15:19:55Z
2022-05-21T13:21:17Z,42.805,6.029,13.3029,4.60080,2470.577,2022-5-21T15:22:58Z
2022-05-21T13:24:20Z,42.805,6.029,13.3023,4.60079,2470.577,2022-5-21T15:26:01Z
2022-05-21T13:27:23Z,42.805,6.029,13.3016,4.60092,2470.567,2022-5-21T15:29:04Z
2022-05-21T13:30:26Z,42.805,6.029,13.3015,4.60095,2470.577,2022-5-21T15:32:07Z
2022-05-21T13:33:29Z,42.805,6.029,13.3014,4.60102,2470.553,2022-5-21T15:35:10Z
2022-05-21T13:36:32Z,42.805,6.029,13.3026,4.60096,2470.553,2022-5-21T15:38:14Z
2022-05-21T13:39:35Z,42.805,6.029,13.3020,4.60103,2470.567,2022-5-21T15:41:17Z
2022-05-21T13:42:38Z,42.805,6.029,13.3014,4.60077,2470.567,2022-5-21T15:44:20Z
2022-05-21T13:45:42Z,42.805,6.029,13.3011,4.60112,2470.553,2022-5-21T15:47:23Z
2022-05-21T13:48:45Z,42.805,6.029,13.3019,4.60113,2470.591,2022-5-21T15:50:26Z
2022-05-21T13:51:48Z,42.805,6.029,13.3023,4.60097,2470.553,2022-5-21T15:53:29Z
2022-05-21T13:54:51Z,42.805,6.029,13.3017,4.60110,2470.53,2022-5-21T15:56:32Z
2022-05-21T13:57:54Z,42.805,6.029,13.3026,4.60083,2470.553,2022-5-21T15:59:36Z
2022-05-21T14:00:57Z,42.805,6.029,13.3031,4.60114,2470.553,2022-5-21T16:02:39Z
2022-05-21T14:04:00Z,42.805,6.029,13.3024,4.60079,2470.553,2022-5-21T16:05:42Z
2022-05-21T14:07:04Z,42.805,6.029,13.3017,4.60097,2470.567,2022-5-21T16:08:45Z
2022-05-21T14:10:07Z,42.805,6.029,13.3029,4.60081,2470.553,2022-5-21T16:11:48Z
2022-05-21T14:13:10Z,42.805,6.029,13.3030,4.60110,2470.567,2022-5-21T16:14:51Z
2022-05-21T14:16:13Z,42.805,6.029,13.3028,4.60103,2470.567,2022-5-21T16:17:54Z
2022-05-21T14:19:16Z,42.805,6.029,13.3019,4.60098,2470.53,2022-5-21T16:20:57Z
2022-05-21T14:22:19Z,42.805,6.029,13.3013,4.60089,2470.52,2022-5-21T16:24:01Z
2022-05-21T14:25:22Z,42.805,6.029,13.3019,4.60087,2470.567,2022-5-21T16:27:04Z
2022-05-21T14:28:25Z,42.805,6.029,13.3020,4.60107,2470.553,2022-5-21T16:30:07Z
2022-05-21T14:31:29Z,42.805,6.029,13.3026,4.60109,2470.567,2022-5-21T16:33:10Z
2022-05-21T14:34:32Z,42.805,6.029,13.3024,4.60105,2470.553,2022-5-21T16:36:13Z
2022-05-21T14:37:35Z,42.805,6.029,13.3024,4.60113,2470.53,2022-5-21T16:39:16Z
2022-05-21T14:40:38Z,42.805,6.029,13.3029,4.60104,2470.553,2022-5-21T16:42:19Z
2022-05-21T14:43:41Z,42.805,6.029,13.3014,4.60069,2470.553,2022-5-21T16:45:22Z
2022-05-21T14:46:44Z,42.805,6.029,13.3027,4.60099,2470.544,2022-5-21T16:48:26Z
2022-05-21T14:49:47Z,42.805,6.029,13.3027,4.60105,2470.52,2022-5-21T16:51:29Z
2022-05-21T14:52:50Z,42.805,6.029,13.3020,4.60107,2470.567,2022-5-21T16:54:32Z
2022-05-21T14:55:54Z,42.805,6.029,13.3033,4.60102,2470.544,2022-5-21T16:57:35Z
2022-05-21T14:58:57Z,42.805,6.029,13.3043,4.60112,2470.53,2022-5-21T17:00:38Z
2022-05-21T15:02:00Z,42.805,6.029,13.3026,4.60104,2470.52,2022-5-21T17:03:41Z
2022-05-21T15:05:03Z,42.805,6.029,13.3027,4.60097,2470.53,2022-5-21T17:06:44Z
2022-05-21T15:08:06Z,42.805,6.029,13.3019,4.60092,2470.544,2022-5-21T17:09:47Z
2022-05-21T15:11:09Z,42.805,6.029,13.3024,4.60074,2470.558,2022-5-21T17:12:51Z
2022-05-21T15:14:12Z,42.805,6.029,13.3021,4.60098,2470.567,2022-5-21T17:15:54Z